Previsão horária em Sengerema

Hoje, 26 Novembro, Quinta-feira

Tempo Temperatura Precipitação Vento Pressão Humidade
00:00 +20°C° 0 mm 2 m/s 657 mmHg 83%
01:00 +21°C° 0 mm 1 m/s 657 mmHg 83%
02:00 +21°C° 0 mm 1 m/s 656 mmHg 82%
03:00 +21°C° 0.1 mm 1 m/s 656 mmHg 82%
04:00 +21°C° 0.1 mm 1 m/s 657 mmHg 83%
05:00 +21°C° 0.1 mm 1 m/s 657 mmHg 83%
06:00 +22°C° 0.2 mm 1 m/s 658 mmHg 78%
07:00 +24°C° 0.2 mm 1 m/s 659 mmHg 74%
08:00 +23°C° 0.2 mm 0 m/s 660 mmHg 70%
09:00 +26°C° 0.2 mm 1 m/s 659 mmHg 65%
10:00 +28°C° 0.2 mm 1 m/s 659 mmHg 59%
11:00 +29°C° 0.2 mm 2 m/s 659 mmHg 53%
12:00 +29°C° 0.1 mm 2 m/s 658 mmHg 54%
13:00 +29°C° 0.1 mm 2 m/s 658 mmHg 54%
14:00 +29°C° 0.1 mm 2 m/s 657 mmHg 54%
15:00 +28°C° 0.2 mm 2 m/s 657 mmHg 58%
16:00 +27°C° 0.2 mm 2 m/s 656 mmHg 62%
17:00 +27°C° 0.2 mm 2 m/s 656 mmHg 66%
18:00 +26°C° 0 mm 2 m/s 656 mmHg 70%
19:00 +24°C° 0 mm 2 m/s 656 mmHg 73%
20:00 +23°C° 0 mm 2 m/s 657 mmHg 76%
21:00 +23°C° 0 mm 2 m/s 656 mmHg 77%
22:00 +23°C° 0 mm 1 m/s 656 mmHg 77%
23:00 +23°C° 0 mm 1 m/s 656 mmHg 77%

Amanhã, 27 Novembro, Sexta-feira

Tempo Temperatura Precipitação Vento Pressão Humidade
00:00 +22°C° 0.2 mm 1 m/s 656 mmHg 78%
01:00 +22°C° 0.2 mm 1 m/s 656 mmHg 79%
02:00 +22°C° 0.2 mm 1 m/s 656 mmHg 79%
03:00 +20°C° 0.1 mm 0 m/s 656 mmHg 79%
04:00 +20°C° 0.1 mm 0 m/s 656 mmHg 79%
05:00 +20°C° 0.1 mm 0 m/s 656 mmHg 79%
06:00 +23°C° 0.2 mm 1 m/s 657 mmHg 76%
07:00 +24°C° 0.2 mm 1 m/s 658 mmHg 72%
08:00 +26°C° 0.2 mm 1 m/s 659 mmHg 68%
09:00 +27°C° 0.7 mm 1 m/s 659 mmHg 65%
10:00 +28°C° 0.7 mm 2 m/s 658 mmHg 61%
11:00 +29°C° 0.7 mm 2 m/s 658 mmHg 57%
12:00 +28°C° 0.4 mm 2 m/s 657 mmHg 58%
13:00 +28°C° 0.4 mm 2 m/s 657 mmHg 60%
14:00 +28°C° 0.4 mm 2 m/s 656 mmHg 61%
15:00 +27°C° 0 mm 3 m/s 656 mmHg 64%
16:00 +26°C° 0 mm 3 m/s 655 mmHg 67%
17:00 +26°C° 0 mm 3 m/s 655 mmHg 70%
18:00 +25°C° 0 mm 3 m/s 656 mmHg 74%
19:00 +24°C° 0 mm 3 m/s 656 mmHg 77%
20:00 +23°C° 0 mm 2 m/s 657 mmHg 81%
21:00 +23°C° 0.5 mm 2 m/s 657 mmHg 82%
22:00 +23°C° 0.5 mm 1 m/s 656 mmHg 82%
23:00 +22°C° 0.5 mm 1 m/s 656 mmHg 83%

Depois de amanhã, 28 Novembro, Sábado

Tempo Temperatura Precipitação Vento Pressão Humidade
00:00 +22°C° 0.3 mm 1 m/s 656 mmHg 83%
01:00 +22°C° 0.3 mm 1 m/s 656 mmHg 82%
02:00 +21°C° 0.3 mm 2 m/s 656 mmHg 82%
03:00 +22°C° 0.5 mm 1 m/s 656 mmHg 82%
04:00 +22°C° 0.5 mm 1 m/s 656 mmHg 83%
05:00 +22°C° 0.5 mm 1 m/s 656 mmHg 83%
06:00 +21°C° 0.5 mm 0 m/s 657 mmHg 79%
07:00 +22°C° 0.5 mm 0 m/s 658 mmHg 75%
08:00 +23°C° 0.5 mm 0 m/s 659 mmHg 71%
09:00 +26°C° 0.9 mm 1 m/s 659 mmHg 69%
10:00 +26°C° 0.9 mm 2 m/s 659 mmHg 66%
11:00 +27°C° 0.9 mm 3 m/s 658 mmHg 64%
12:00 +27°C° 1.1 mm 3 m/s 658 mmHg 65%
13:00 +27°C° 1.1 mm 3 m/s 657 mmHg 66%
14:00 +27°C° 1.1 mm 3 m/s 656 mmHg 66%
15:00 +26°C° 0.4 mm 3 m/s 656 mmHg 70%
16:00 +26°C° 0.4 mm 2 m/s 655 mmHg 73%
17:00 +25°C° 0.4 mm 2 m/s 655 mmHg 76%
18:00 +24°C° 0 mm 3 m/s 655 mmHg 78%
19:00 +22°C° 0 mm 3 m/s 656 mmHg 80%
20:00 +21°C° 0 mm 3 m/s 656 mmHg 83%
21:00 +23°C° 0.2 mm 2 m/s 656 mmHg 82%
22:00 +23°C° 0.2 mm 2 m/s 656 mmHg 81%
23:00 +23°C° 0.2 mm 1 m/s 657 mmHg 80%

29 Novembro, Domingo

Tempo Temperatura Precipitação Vento Pressão Humidade
00:00 +23°C° 1.6 mm 2 m/s 657 mmHg 83%
01:00 +21°C° 1.6 mm 4 m/s 656 mmHg 85%
02:00 +21°C° 1.6 mm 5 m/s 656 mmHg 87%
03:00 +21°C° 2.5 mm 5 m/s 657 mmHg 88%
04:00 +21°C° 2.5 mm 5 m/s 657 mmHg 89%
05:00 +20°C° 2.5 mm 5 m/s 657 mmHg 90%
06:00 +21°C° 2.3 mm 5 m/s 658 mmHg 89%
07:00 +21°C° 2.3 mm 4 m/s 658 mmHg 88%
08:00 +21°C° 2.3 mm 3 m/s 658 mmHg 88%
09:00 +21°C° 0.8 mm 3 m/s 658 mmHg 85%
10:00 +22°C° 0.8 mm 3 m/s 658 mmHg 83%
11:00 +24°C° 0.8 mm 3 m/s 658 mmHg 81%
12:00 +24°C° 0.7 mm 3 m/s 658 mmHg 79%
13:00 +24°C° 0.7 mm 3 m/s 657 mmHg 78%
14:00 +25°C° 0.7 mm 3 m/s 656 mmHg 76%
15:00 +25°C° 0.5 mm 2 m/s 656 mmHg 78%
16:00 +24°C° 0.5 mm 2 m/s 656 mmHg 79%
17:00 +24°C° 0.5 mm 1 m/s 656 mmHg 81%
18:00 +23°C° 0.5 mm 1 m/s 657 mmHg 82%
19:00 +23°C° 0.5 mm 1 m/s 657 mmHg 84%
20:00 +22°C° 0.5 mm 1 m/s 657 mmHg 85%
21:00 +22°C° 0.4 mm 1 m/s 657 mmHg 86%
22:00 +22°C° 0.4 mm 1 m/s 657 mmHg 86%
23:00 +21°C° 0.4 mm 1 m/s 658 mmHg 86%

30 Novembro, Segunda-feira

Tempo Temperatura Precipitação Vento Pressão Humidade
00:00 +21°C° 0.3 mm 1 m/s 657 mmHg 87%
01:00 +21°C° 0.3 mm 1 m/s 657 mmHg 87%
02:00 +20°C° 0.3 mm 2 m/s 657 mmHg 88%
03:00 +20°C° 1 mm 2 m/s 657 mmHg 90%
04:00 +20°C° 1 mm 2 m/s 657 mmHg 91%
05:00 +20°C° 1 mm 2 m/s 658 mmHg 93%
06:00 +19°C° 2.9 mm 2 m/s 658 mmHg 93%
07:00 +19°C° 2.9 mm 2 m/s 659 mmHg 93%
08:00 +19°C° 2.9 mm 2 m/s 659 mmHg 93%
09:00 +19°C° 1.5 mm 2 m/s 659 mmHg 91%
10:00 +20°C° 1.5 mm 2 m/s 659 mmHg 89%
11:00 +20°C° 1.5 mm 2 m/s 659 mmHg 87%
12:00 +21°C° 0.1 mm 2 m/s 659 mmHg 85%
13:00 +21°C° 0.1 mm 2 m/s 658 mmHg 82%
14:00 +23°C° 0.1 mm 2 m/s 658 mmHg 79%
15:00 +23°C° 0 mm 2 m/s 658 mmHg 79%
16:00 +23°C° 0 mm 1 m/s 658 mmHg 79%
17:00 +23°C° 0 mm 1 m/s 657 mmHg 79%
18:00 +22°C° 0 mm 1 m/s 658 mmHg 81%
19:00 +21°C° 0 mm 1 m/s 658 mmHg 82%
20:00 +21°C° 0 mm 1 m/s 658 mmHg 84%
21:00 +21°C° 0 mm 1 m/s 658 mmHg 84%
22:00 +21°C° 0 mm 1 m/s 658 mmHg 84%
23:00 +21°C° 0 mm 1 m/s 658 mmHg 84%

1 Dezembro, Terça-feira

Tempo Temperatura Precipitação Vento Pressão Humidade
00:00 +21°C° 0 mm 1 m/s 658 mmHg 85%
01:00 +20°C° 0 mm 1 m/s 657 mmHg 86%
02:00 +20°C° 0 mm 1 m/s 657 mmHg 86%
03:00 +20°C° 0.1 mm 1 m/s 657 mmHg 86%
04:00 +20°C° 0.1 mm 1 m/s 657 mmHg 85%
05:00 +20°C° 0.1 mm 1 m/s 657 mmHg 85%
06:00 +21°C° 0.1 mm 1 m/s 658 mmHg 81%
07:00 +22°C° 0.1 mm 1 m/s 659 mmHg 77%
08:00 +23°C° 0.1 mm 1 m/s 660 mmHg 72%
09:00 +25°C° 0.4 mm 1 m/s 660 mmHg 67%
10:00 +26°C° 0.4 mm 1 m/s 660 mmHg 61%
11:00 +26°C° 0.4 mm 0 m/s 660 mmHg 55%
12:00 +28°C° 0 mm 1 m/s 659 mmHg 55%
13:00 +28°C° 0 mm 2 m/s 658 mmHg 54%
14:00 +28°C° 0 mm 3 m/s 657 mmHg 53%
15:00 +27°C° 0 mm 3 m/s 657 mmHg 57%
16:00 +26°C° 0 mm 3 m/s 657 mmHg 62%
17:00 +25°C° 0 mm 2 m/s 657 mmHg 66%
18:00 +24°C° 0 mm 2 m/s 657 mmHg 69%
19:00 +23°C° 0 mm 1 m/s 657 mmHg 71%
20:00 +23°C° 0 mm 1 m/s 657 mmHg 73%
21:00 +22°C° 0 mm 1 m/s 657 mmHg 74%
22:00 +22°C° 0 mm 1 m/s 657 mmHg 74%
23:00 +20°C° 0 mm 0 m/s 658 mmHg 75%
Mostrar mais

Necessitamos do seu Consentimento

A Meteoprog e os seus Fornecedores de Serviços podem armazenar e aceder a dados pessoais como cookies, identificadores do dispositivo ou outras tecnologias semelhantes existentes no seu dispositivo e processar estes dados para personalizar conteúdos e anúncios, assim como funcionalidades nas redes sociais e análise de tráfego.

  • Armazenar e/ou aceder a informações no seu dispositivo

    Os cookies, identificadores do dispositivo ou outras informações podem ser armazenados ou acedidos no seu dispositivo, para os fins acima indicados.

  • Anúncios e conteúdos personalizados, medição de anúncios e conteúdos, dados sobre o público-alvo e desenvolvimento de produtos

    Os anúncios e os conteúdos podem ser personalizados com base num perfil. Podem ser adicionados dados adicionais para uma maior personalização dos anúncios e dos conteúdos. A eficácia dos anúncios e dos conteúdos pode ser medida. Podem ser obtidas informações sobre o público que visualizou os anúncios e os conteúdos. Estes dados podem ser usados para desenvolver ou melhorar sistemas, softwares ou a experiência do utilizador.

Ao clicar em "Eu concordo”, permitirá o uso de cookies, identificadores do dispositivo e web beacons mencionados ou outras tecnologias semelhantes. As configurações do navegador do seu dispositivo podem ser alteradas.

Para certos fins, podem ser invocados interesses legítimos ao invés de consentimento. Pode ler mais informação sobre este assunto na nossa Política de Privacidade e Cookies.